WXM80 ListenWXM80 Stop

You find our weather info also at:

UK Metoffice

WeatherCloud

Weather Underground

Northeastern Weather Network

AWEKAS

Citizen Weather Observer Program (CWOP)

HAMweather, WeatherForYou, PWS Weather


Weather Underground History page Text

Daily Summary for January 27, 2017 Units:  Both    English   Metric
« Previous Day
Next Day »
Daily Weekly Monthly Yearly Custom
  High: Low: Average:
Temperature: 44.1 °F /  6.7 °C 38.0 °F /  3.3 °C 41.1 °F /  5.1 °C
Dew Point: 32.1 °F /  0.1 °C 25.1 °F /  -3.8 °C 29.2 °F /  -1.6 °C
Humidity: 70 % 47 % 63 %
Wind Speed: 12.4 mph /  20 km/h - 6.9 mph /  11.1 km/h
Wind Gust: 23.0 mph /  37 km/h - -
Wind:- - WSW
Pressure: 29.62 in /  1002.9 hPa 29.52 in /  999.5 hPa -
Precipitation: 0.00 in /  0 mm    
Historical Graphs
 
 
Tabular Data for January 27, 2017
Time Temperature Dew Point Pressure Wind Wind Speed Wind Gust Humidity Rainfall Rate (Hourly)
00:03 42.1 °F /  5.6 °C 31.9 °F /  -0.1 °C 29.52 in /  999.5 hPa WSW 9.0 mph /  14.5 km/h 14.0 mph /  22.5 km/h 67 % 0.00 in /  0 mm
00:08 42.0 °F /  5.6 °C 31.8 °F /  -0.1 °C 29.52 in /  999.5 hPa WNW 10.4 mph /  16.7 km/h 19.6 mph /  31.5 km/h 67 % 0.00 in /  0 mm
00:13 42.0 °F /  5.6 °C 31.8 °F /  -0.1 °C 29.52 in /  999.5 hPa WSW 9.9 mph /  15.9 km/h 16.1 mph /  25.9 km/h 67 % 0.00 in /  0 mm
00:18 42.0 °F /  5.6 °C 31.8 °F /  -0.1 °C 29.52 in /  999.5 hPa NW 7.0 mph /  11.3 km/h 16.1 mph /  25.9 km/h 67 % 0.00 in /  0 mm
00:23 42.0 °F /  5.6 °C 31.5 °F /  -0.3 °C 29.52 in /  999.5 hPa West 6.1 mph /  9.8 km/h 11.5 mph /  18.5 km/h 66 % 0.00 in /  0 mm
00:28 42.0 °F /  5.6 °C 31.5 °F /  -0.3 °C 29.53 in /  999.9 hPa WSW 7.4 mph /  11.9 km/h 12.0 mph /  19.3 km/h 66 % 0.00 in /  0 mm
00:33 42.0 °F /  5.6 °C 31.5 °F /  -0.3 °C 29.53 in /  999.9 hPa West 6.8 mph /  10.9 km/h 13.8 mph /  22.2 km/h 66 % 0.00 in /  0 mm
00:38 41.9 °F /  5.5 °C 31.4 °F /  -0.3 °C 29.53 in /  999.9 hPa West 8.9 mph /  14.3 km/h 18.4 mph /  29.6 km/h 66 % 0.00 in /  0 mm
00:49 41.9 °F /  5.5 °C 31.4 °F /  -0.3 °C 29.53 in /  999.9 hPa West 6.2 mph /  10 km/h 11.5 mph /  18.5 km/h 66 % 0.00 in /  0 mm
00:54 41.8 °F /  5.4 °C 31.3 °F /  -0.4 °C 29.53 in /  999.9 hPa West 9.0 mph /  14.5 km/h 16.0 mph /  25.7 km/h 66 % 0.00 in /  0 mm
00:59 41.8 °F /  5.4 °C 31.3 °F /  -0.4 °C 29.54 in /  1000.2 hPa WSW 3.8 mph /  6.1 km/h 11.5 mph /  18.5 km/h 66 % 0.00 in /  0 mm
01:04 41.9 °F /  5.5 °C 31.4 °F /  -0.3 °C 29.55 in /  1000.6 hPa WNW 6.2 mph /  10 km/h 10.4 mph /  16.7 km/h 66 % 0.00 in /  0 mm
01:09 41.9 °F /  5.5 °C 31.4 °F /  -0.3 °C 29.54 in /  1000.2 hPa West 5.6 mph /  9 km/h 15.0 mph /  24.1 km/h 66 % 0.00 in /  0 mm
01:14 42.0 °F /  5.6 °C 31.5 °F /  -0.3 °C 29.55 in /  1000.6 hPa WSW 7.2 mph /  11.6 km/h 11.5 mph /  18.5 km/h 66 % 0.00 in /  0 mm
01:19 42.1 °F /  5.6 °C 31.2 °F /  -0.4 °C 29.55 in /  1000.6 hPa WSW 6.0 mph /  9.7 km/h 9.2 mph /  14.8 km/h 65 % 0.00 in /  0 mm
01:24 42.2 °F /  5.7 °C 31.3 °F /  -0.4 °C 29.55 in /  1000.6 hPa WSW 6.7 mph /  10.8 km/h 11.0 mph /  17.7 km/h 65 % 0.00 in /  0 mm
01:29 42.3 °F /  5.7 °C 31.7 °F /  -0.2 °C 29.55 in /  1000.6 hPa WSW 7.0 mph /  11.3 km/h 10.4 mph /  16.7 km/h 66 % 0.00 in /  0 mm
01:34 42.3 °F /  5.7 °C 31.7 °F /  -0.2 °C 29.55 in /  1000.6 hPa WSW 5.0 mph /  8 km/h 11.0 mph /  17.7 km/h 66 % 0.00 in /  0 mm
01:39 42.2 °F /  5.7 °C 31.6 °F /  -0.2 °C 29.55 in /  1000.6 hPa West 7.0 mph /  11.3 km/h 10.4 mph /  16.7 km/h 66 % 0.00 in /  0 mm
01:44 42.0 °F /  5.6 °C 31.5 °F /  -0.3 °C 29.55 in /  1000.6 hPa West 6.1 mph /  9.8 km/h 13.8 mph /  22.2 km/h 66 % 0.00 in /  0 mm
01:49 41.9 °F /  5.5 °C 31.0 °F /  -0.6 °C 29.55 in /  1000.6 hPa WSW 7.8 mph /  12.6 km/h 13.0 mph /  20.9 km/h 65 % 0.00 in /  0 mm
01:55 41.7 °F /  5.4 °C 30.8 °F /  -0.7 °C 29.55 in /  1000.6 hPa WSW 6.6 mph /  10.6 km/h 13.0 mph /  20.9 km/h 65 % 0.00 in /  0 mm
02:00 41.6 °F /  5.3 °C 30.7 °F /  -0.7 °C 29.55 in /  1000.6 hPa WSW 6.7 mph /  10.8 km/h 10.4 mph /  16.7 km/h 65 % 0.00 in /  0 mm
02:05 41.4 °F /  5.2 °C 30.9 °F /  -0.6 °C 29.55 in /  1000.6 hPa SW 6.4 mph /  10.3 km/h 9.0 mph /  14.5 km/h 66 % 0.00 in /  0 mm
02:10 41.3 °F /  5.2 °C 30.8 °F /  -0.7 °C 29.55 in /  1000.6 hPa SW 2.9 mph /  4.7 km/h 10.4 mph /  16.7 km/h 66 % 0.00 in /  0 mm
02:15 41.2 °F /  5.1 °C 30.7 °F /  -0.7 °C 29.55 in /  1000.6 hPa West 8.3 mph /  13.4 km/h 15.0 mph /  24.1 km/h 66 % 0.00 in /  0 mm
02:20 41.2 °F /  5.1 °C 31.1 °F /  -0.5 °C 29.56 in /  1000.9 hPa WSW 4.1 mph /  6.6 km/h 8.1 mph /  13 km/h 67 % 0.00 in /  0 mm
02:30 41.1 °F /  5.1 °C 31.0 °F /  -0.6 °C 29.56 in /  1000.9 hPa WSW 9.0 mph /  14.5 km/h 15.0 mph /  24.1 km/h 67 % 0.00 in /  0 mm
02:35 41.1 °F /  5.1 °C 31.0 °F /  -0.6 °C 29.56 in /  1000.9 hPa West 5.4 mph /  8.7 km/h 12.7 mph /  20.4 km/h 67 % 0.00 in /  0 mm
02:40 41.1 °F /  5.1 °C 31.0 °F /  -0.6 °C 29.56 in /  1000.9 hPa SW 9.5 mph /  15.3 km/h 13.8 mph /  22.2 km/h 67 % 0.00 in /  0 mm
02:45 41.0 °F /  5 °C 30.9 °F /  -0.6 °C 29.55 in /  1000.6 hPa West 8.2 mph /  13.2 km/h 11.5 mph /  18.5 km/h 67 % 0.00 in /  0 mm
02:50 41.0 °F /  5 °C 30.9 °F /  -0.6 °C 29.56 in /  1000.9 hPa WSW 8.3 mph /  13.4 km/h 11.5 mph /  18.5 km/h 67 % 0.00 in /  0 mm
02:55 41.0 °F /  5 °C 30.9 °F /  -0.6 °C 29.56 in /  1000.9 hPa SW 6.6 mph /  10.6 km/h 11.5 mph /  18.5 km/h 67 % 0.00 in /  0 mm
03:00 41.0 °F /  5 °C 30.9 °F /  -0.6 °C 29.56 in /  1000.9 hPa WSW 4.9 mph /  7.9 km/h 11.5 mph /  18.5 km/h 67 % 0.00 in /  0 mm
03:06 40.9 °F /  4.9 °C 30.8 °F /  -0.7 °C 29.56 in /  1000.9 hPa SW 5.4 mph /  8.7 km/h 13.8 mph /  22.2 km/h 67 % 0.00 in /  0 mm
03:11 40.9 °F /  4.9 °C 30.8 °F /  -0.7 °C 29.56 in /  1000.9 hPa SW 5.9 mph /  9.5 km/h 9.2 mph /  14.8 km/h 67 % 0.00 in /  0 mm
03:16 40.9 °F /  4.9 °C 30.8 °F /  -0.7 °C 29.56 in /  1000.9 hPa SSW 6.2 mph /  10 km/h 19.6 mph /  31.5 km/h 67 % 0.00 in /  0 mm
03:21 40.9 °F /  4.9 °C 30.8 °F /  -0.7 °C 29.56 in /  1000.9 hPa WSW 8.2 mph /  13.2 km/h 13.8 mph /  22.2 km/h 67 % 0.00 in /  0 mm
03:26 40.9 °F /  4.9 °C 30.8 °F /  -0.7 °C 29.57 in /  1001.2 hPa West 6.8 mph /  10.9 km/h 17.3 mph /  27.8 km/h 67 % 0.00 in /  0 mm
03:31 40.9 °F /  4.9 °C 31.1 °F /  -0.5 °C 29.56 in /  1000.9 hPa SW 5.2 mph /  8.4 km/h 9.2 mph /  14.8 km/h 68 % 0.00 in /  0 mm
03:36 40.8 °F /  4.9 °C 30.7 °F /  -0.7 °C 29.56 in /  1000.9 hPa WSW 6.7 mph /  10.8 km/h 11.5 mph /  18.5 km/h 67 % 0.00 in /  0 mm
03:41 40.8 °F /  4.9 °C 30.7 °F /  -0.7 °C 29.57 in /  1001.2 hPa WSW 5.1 mph /  8.2 km/h 11.5 mph /  18.5 km/h 67 % 0.00 in /  0 mm
03:46 40.8 °F /  4.9 °C 30.7 °F /  -0.7 °C 29.56 in /  1000.9 hPa WSW 8.8 mph /  14.2 km/h 10.4 mph /  16.7 km/h 67 % 0.00 in /  0 mm
03:51 40.7 °F /  4.8 °C 31.0 °F /  -0.6 °C 29.56 in /  1000.9 hPa WSW 7.8 mph /  12.6 km/h 9.2 mph /  14.8 km/h 68 % 0.00 in /  0 mm
03:56 40.7 °F /  4.8 °C 31.0 °F /  -0.6 °C 29.57 in /  1001.2 hPa WSW 6.1 mph /  9.8 km/h 14.0 mph /  22.5 km/h 68 % 0.00 in /  0 mm
04:01 40.7 °F /  4.8 °C 31.0 °F /  -0.6 °C 29.57 in /  1001.2 hPa WSW 4.4 mph /  7.1 km/h 6.0 mph /  9.7 km/h 68 % 0.00 in /  0 mm
04:07 40.7 °F /  4.8 °C 31.0 °F /  -0.6 °C 29.57 in /  1001.2 hPa West 7.3 mph /  11.7 km/h 9.2 mph /  14.8 km/h 68 % 0.00 in /  0 mm
04:12 40.7 °F /  4.8 °C 31.0 °F /  -0.6 °C 29.57 in /  1001.2 hPa WSW 5.1 mph /  8.2 km/h 8.1 mph /  13 km/h 68 % 0.00 in /  0 mm
04:17 40.7 °F /  4.8 °C 31.0 °F /  -0.6 °C 29.57 in /  1001.2 hPa SW 5.2 mph /  8.4 km/h 8.0 mph /  12.9 km/h 68 % 0.00 in /  0 mm
04:22 40.6 °F /  4.8 °C 30.9 °F /  -0.6 °C 29.57 in /  1001.2 hPa SSW 7.5 mph /  12.1 km/h 10.4 mph /  16.7 km/h 68 % 0.00 in /  0 mm
04:27 40.7 °F /  4.8 °C 31.0 °F /  -0.6 °C 29.57 in /  1001.2 hPa SW 8.0 mph /  12.9 km/h 15.0 mph /  24.1 km/h 68 % 0.00 in /  0 mm
04:32 40.7 °F /  4.8 °C 31.0 °F /  -0.6 °C 29.57 in /  1001.2 hPa WSW 5.4 mph /  8.7 km/h 11.5 mph /  18.5 km/h 68 % 0.00 in /  0 mm
04:35 40.9 °F /  4.9 °C 31.1 °F /  -0.5 °C 29.57 in /  1001.2 hPa SW 5.6 mph /  9 km/h 12.7 mph /  20.4 km/h 68 % 0.00 in /  0 mm
04:40 41.0 °F /  5 °C 31.2 °F /  -0.4 °C 29.58 in /  1001.6 hPa West 7.2 mph /  11.6 km/h 10.4 mph /  16.7 km/h 68 % 0.00 in /  0 mm
04:45 41.1 °F /  5.1 °C 31.3 °F /  -0.4 °C 29.58 in /  1001.6 hPa WSW 9.5 mph /  15.3 km/h 19.6 mph /  31.5 km/h 68 % 0.00 in /  0 mm
04:51 41.3 °F /  5.2 °C 31.9 °F /  -0.1 °C 29.58 in /  1001.6 hPa WNW 4.5 mph /  7.2 km/h 10.4 mph /  16.7 km/h 69 % 0.00 in /  0 mm
04:56 41.4 °F /  5.2 °C 32.0 °F /  0 °C 29.58 in /  1001.6 hPa WNW 6.3 mph /  10.1 km/h 6.9 mph /  11.1 km/h 69 % 0.00 in /  0 mm
05:01 41.4 °F /  5.2 °C 32.0 °F /  0 °C 29.58 in /  1001.6 hPa West 7.5 mph /  12.1 km/h 16.1 mph /  25.9 km/h 69 % 0.00 in /  0 mm
05:06 41.4 °F /  5.2 °C 32.0 °F /  0 °C 29.57 in /  1001.2 hPa WSW 8.6 mph /  13.8 km/h 13.8 mph /  22.2 km/h 69 % 0.00 in /  0 mm
05:07 41.4 °F /  5.2 °C 32.0 °F /  0 °C 29.57 in /  1001.2 hPa WSW 9.7 mph /  15.6 km/h 20.0 mph /  32.2 km/h 69 % 0.00 in /  0 mm
05:12 41.4 °F /  5.2 °C 32.0 °F /  0 °C 29.58 in /  1001.6 hPa WSW 11.6 mph /  18.7 km/h 17.3 mph /  27.8 km/h 69 % 0.00 in /  0 mm
05:17 41.3 °F /  5.2 °C 31.9 °F /  -0.1 °C 29.57 in /  1001.2 hPa West 5.9 mph /  9.5 km/h 13.8 mph /  22.2 km/h 69 % 0.00 in /  0 mm
05:22 41.2 °F /  5.1 °C 31.8 °F /  -0.1 °C 29.57 in /  1001.2 hPa SW 8.9 mph /  14.3 km/h 13.8 mph /  22.2 km/h 69 % 0.00 in /  0 mm
05:27 41.1 °F /  5.1 °C 31.7 °F /  -0.2 °C 29.57 in /  1001.2 hPa West 6.5 mph /  10.5 km/h 11.5 mph /  18.5 km/h 69 % 0.00 in /  0 mm
05:32 41.1 °F /  5.1 °C 32.1 °F /  0.1 °C 29.58 in /  1001.6 hPa SW 9.6 mph /  15.4 km/h 16.1 mph /  25.9 km/h 70 % 0.00 in /  0 mm
05:37 41.1 °F /  5.1 °C 32.1 °F /  0.1 °C 29.57 in /  1001.2 hPa WNW 6.6 mph /  10.6 km/h 11.5 mph /  18.5 km/h 70 % 0.00 in /  0 mm
05:42 41.2 °F /  5.1 °C 31.8 °F /  -0.1 °C 29.58 in /  1001.6 hPa West 5.9 mph /  9.5 km/h 8.1 mph /  13 km/h 69 % 0.00 in /  0 mm
05:47 41.2 °F /  5.1 °C 31.8 °F /  -0.1 °C 29.58 in /  1001.6 hPa WNW 6.2 mph /  10 km/h 16.1 mph /  25.9 km/h 69 % 0.00 in /  0 mm
05:52 41.2 °F /  5.1 °C 31.8 °F /  -0.1 °C 29.58 in /  1001.6 hPa South 3.6 mph /  5.8 km/h 8.0 mph /  12.9 km/h 69 % 0.00 in /  0 mm
05:57 41.0 °F /  5 °C 31.2 °F /  -0.4 °C 29.57 in /  1001.2 hPa WSW 6.8 mph /  10.9 km/h 10.4 mph /  16.7 km/h 68 % 0.00 in /  0 mm
06:02 40.9 °F /  4.9 °C 30.8 °F /  -0.7 °C 29.57 in /  1001.2 hPa West 4.9 mph /  7.9 km/h 15.0 mph /  24.1 km/h 67 % 0.00 in /  0 mm
06:07 40.9 °F /  4.9 °C 30.4 °F /  -0.9 °C 29.57 in /  1001.2 hPa SSW 5.1 mph /  8.2 km/h 11.5 mph /  18.5 km/h 66 % 0.00 in /  0 mm
06:12 40.7 °F /  4.8 °C 30.2 °F /  -1 °C 29.58 in /  1001.6 hPa West 2.8 mph /  4.5 km/h 10.4 mph /  16.7 km/h 66 % 0.00 in /  0 mm
06:18 40.7 °F /  4.8 °C 30.2 °F /  -1 °C 29.58 in /  1001.6 hPa SW 6.8 mph /  10.9 km/h 11.5 mph /  18.5 km/h 66 % 0.00 in /  0 mm
06:23 40.6 °F /  4.8 °C 30.1 °F /  -1.1 °C 29.58 in /  1001.6 hPa WSW 8.5 mph /  13.7 km/h 12.0 mph /  19.3 km/h 66 % 0.00 in /  0 mm
06:28 40.6 °F /  4.8 °C 29.7 °F /  -1.3 °C 29.58 in /  1001.6 hPa SW 6.3 mph /  10.1 km/h 15.0 mph /  24.1 km/h 65 % 0.00 in /  0 mm
06:33 40.6 °F /  4.8 °C 29.7 °F /  -1.3 °C 29.58 in /  1001.6 hPa WSW 5.0 mph /  8 km/h 9.2 mph /  14.8 km/h 65 % 0.00 in /  0 mm
06:38 40.5 °F /  4.7 °C 29.7 °F /  -1.3 °C 29.58 in /  1001.6 hPa WSW 6.7 mph /  10.8 km/h 13.8 mph /  22.2 km/h 65 % 0.00 in /  0 mm
06:43 40.5 °F /  4.7 °C 29.7 °F /  -1.3 °C 29.58 in /  1001.6 hPa WSW 4.1 mph /  6.6 km/h 9.2 mph /  14.8 km/h 65 % 0.00 in /  0 mm
06:48 40.5 °F /  4.7 °C 29.7 °F /  -1.3 °C 29.58 in /  1001.6 hPa West 7.4 mph /  11.9 km/h 10.4 mph /  16.7 km/h 65 % 0.00 in /  0 mm
06:53 40.5 °F /  4.7 °C 29.7 °F /  -1.3 °C 29.58 in /  1001.6 hPa SW 9.7 mph /  15.6 km/h 15.0 mph /  24.1 km/h 65 % 0.00 in /  0 mm
06:58 40.5 °F /  4.7 °C 29.7 °F /  -1.3 °C 29.58 in /  1001.6 hPa WSW 6.6 mph /  10.6 km/h 10.0 mph /  16.1 km/h 65 % 0.00 in /  0 mm
07:03 40.5 °F /  4.7 °C 29.7 °F /  -1.3 °C 29.59 in /  1001.9 hPa WSW 6.0 mph /  9.7 km/h 13.0 mph /  20.9 km/h 65 % 0.00 in /  0 mm
07:08 40.4 °F /  4.7 °C 29.9 °F /  -1.2 °C 29.59 in /  1001.9 hPa SW 8.9 mph /  14.3 km/h 11.5 mph /  18.5 km/h 66 % 0.00 in /  0 mm
07:14 40.4 °F /  4.7 °C 29.9 °F /  -1.2 °C 29.59 in /  1001.9 hPa WSW 9.0 mph /  14.5 km/h 14.0 mph /  22.5 km/h 66 % 0.00 in /  0 mm
07:19 40.3 °F /  4.6 °C 29.8 °F /  -1.2 °C 29.59 in /  1001.9 hPa WSW 10.0 mph /  16.1 km/h 15.0 mph /  24.1 km/h 66 % 0.00 in /  0 mm
07:24 40.3 °F /  4.6 °C 30.3 °F /  -0.9 °C 29.59 in /  1001.9 hPa SW 6.0 mph /  9.7 km/h 13.0 mph /  20.9 km/h 67 % 0.00 in /  0 mm
07:29 40.4 °F /  4.7 °C 30.3 °F /  -0.9 °C 29.59 in /  1001.9 hPa SW 6.0 mph /  9.7 km/h 16.0 mph /  25.7 km/h 67 % 0.00 in /  0 mm
07:34 40.5 °F /  4.7 °C 30.4 °F /  -0.9 °C 29.60 in /  1002.3 hPa West 6.8 mph /  10.9 km/h 12.7 mph /  20.4 km/h 67 % 0.00 in /  0 mm
07:39 40.6 °F /  4.8 °C 30.5 °F /  -0.8 °C 29.60 in /  1002.3 hPa WSW 8.0 mph /  12.9 km/h 12.0 mph /  19.3 km/h 67 % 0.00 in /  0 mm
07:44 40.8 °F /  4.9 °C 30.3 °F /  -0.9 °C 29.60 in /  1002.3 hPa WSW 8.0 mph /  12.9 km/h 16.0 mph /  25.7 km/h 66 % 0.00 in /  0 mm
07:49 41.0 °F /  5 °C 30.5 °F /  -0.8 °C 29.60 in /  1002.3 hPa WSW 10.0 mph /  16.1 km/h 17.0 mph /  27.4 km/h 66 % 0.00 in /  0 mm
07:54 41.1 °F /  5.1 °C 30.6 °F /  -0.8 °C 29.60 in /  1002.3 hPa WSW 9.0 mph /  14.5 km/h 15.0 mph /  24.1 km/h 66 % 0.00 in /  0 mm
07:59 41.2 °F /  5.1 °C 30.3 °F /  -0.9 °C 29.60 in /  1002.3 hPa WSW 8.1 mph /  13 km/h 12.7 mph /  20.4 km/h 65 % 0.00 in /  0 mm
08:04 41.3 °F /  5.2 °C 30.0 °F /  -1.1 °C 29.60 in /  1002.3 hPa SW 5.8 mph /  9.3 km/h 17.3 mph /  27.8 km/h 64 % 0.00 in /  0 mm
08:09 41.3 °F /  5.2 °C 30.4 °F /  -0.9 °C 29.60 in /  1002.3 hPa WSW 6.6 mph /  10.6 km/h 9.2 mph /  14.8 km/h 65 % 0.00 in /  0 mm
08:14 41.4 °F /  5.2 °C 30.5 °F /  -0.8 °C 29.60 in /  1002.3 hPa WSW 6.8 mph /  10.9 km/h 11.5 mph /  18.5 km/h 65 % 0.00 in /  0 mm
08:19 41.4 °F /  5.2 °C 30.5 °F /  -0.8 °C 29.60 in /  1002.3 hPa SW 6.1 mph /  9.8 km/h 10.4 mph /  16.7 km/h 65 % 0.00 in /  0 mm
08:24 41.4 °F /  5.2 °C 30.5 °F /  -0.8 °C 29.60 in /  1002.3 hPa WNW 9.9 mph /  15.9 km/h 15.0 mph /  24.1 km/h 65 % 0.00 in /  0 mm
08:29 41.4 °F /  5.2 °C 30.5 °F /  -0.8 °C 29.60 in /  1002.3 hPa WSW 7.7 mph /  12.4 km/h 11.5 mph /  18.5 km/h 65 % 0.00 in /  0 mm
08:34 41.4 °F /  5.2 °C 30.5 °F /  -0.8 °C 29.61 in /  1002.6 hPa West 8.0 mph /  12.9 km/h 11.5 mph /  18.5 km/h 65 % 0.00 in /  0 mm
08:39 41.4 °F /  5.2 °C 30.5 °F /  -0.8 °C 29.61 in /  1002.6 hPa West 6.7 mph /  10.8 km/h 18.4 mph /  29.6 km/h 65 % 0.00 in /  0 mm
08:44 41.5 °F /  5.3 °C 30.2 °F /  -1 °C 29.61 in /  1002.6 hPa WSW 8.1 mph /  13 km/h 18.4 mph /  29.6 km/h 64 % 0.00 in /  0 mm
08:49 41.5 °F /  5.3 °C 30.6 °F /  -0.8 °C 29.61 in /  1002.6 hPa West 8.4 mph /  13.5 km/h 16.0 mph /  25.7 km/h 65 % 0.00 in /  0 mm
08:51 41.5 °F /  5.3 °C 30.6 °F /  -0.8 °C 29.61 in /  1002.6 hPa West 9.2 mph /  14.8 km/h 16.1 mph /  25.9 km/h 65 % 0.00 in /  0 mm
08:56 41.5 °F /  5.3 °C 30.2 °F /  -1 °C 29.61 in /  1002.6 hPa West 5.8 mph /  9.3 km/h 13.8 mph /  22.2 km/h 64 % 0.00 in /  0 mm
09:01 41.5 °F /  5.3 °C 30.2 °F /  -1 °C 29.61 in /  1002.6 hPa West 7.2 mph /  11.6 km/h 13.8 mph /  22.2 km/h 64 % 0.00 in /  0 mm
09:06 41.6 °F /  5.3 °C 30.3 °F /  -0.9 °C 29.61 in /  1002.6 hPa WSW 9.5 mph /  15.3 km/h 13.8 mph /  22.2 km/h 64 % 0.00 in /  0 mm
09:11 41.5 °F /  5.3 °C 30.2 °F /  -1 °C 29.61 in /  1002.6 hPa WNW 8.9 mph /  14.3 km/h 23.0 mph /  37 km/h 64 % 0.00 in /  0 mm
09:16 41.6 °F /  5.3 °C 30.3 °F /  -0.9 °C 29.61 in /  1002.6 hPa NW 2.6 mph /  4.2 km/h 11.5 mph /  18.5 km/h 64 % 0.00 in /  0 mm
09:21 41.6 °F /  5.3 °C 30.3 °F /  -0.9 °C 29.62 in /  1002.9 hPa WSW 4.6 mph /  7.4 km/h 11.5 mph /  18.5 km/h 64 % 0.00 in /  0 mm
09:26 41.7 °F /  5.4 °C 30.4 °F /  -0.9 °C 29.62 in /  1002.9 hPa WNW 5.5 mph /  8.9 km/h 20.7 mph /  33.3 km/h 64 % 0.00 in /  0 mm
09:31 41.8 °F /  5.4 °C 30.1 °F /  -1.1 °C 29.62 in /  1002.9 hPa WSW 4.2 mph /  6.8 km/h 11.5 mph /  18.5 km/h 63 % 0.00 in /  0 mm
09:36 41.8 °F /  5.4 °C 30.5 °F /  -0.8 °C 29.61 in /  1002.6 hPa West 9.7 mph /  15.6 km/h 18.4 mph /  29.6 km/h 64 % 0.00 in /  0 mm
09:41 41.8 °F /  5.4 °C 30.1 °F /  -1.1 °C 29.61 in /  1002.6 hPa West 7.6 mph /  12.2 km/h 16.1 mph /  25.9 km/h 63 % 0.00 in /  0 mm
09:46 41.8 °F /  5.4 °C 29.7 °F /  -1.3 °C 29.61 in /  1002.6 hPa WNW 8.8 mph /  14.2 km/h 14.0 mph /  22.5 km/h 62 % 0.00 in /  0 mm
09:51 41.8 °F /  5.4 °C 30.1 °F /  -1.1 °C 29.61 in /  1002.6 hPa WSW 4.2 mph /  6.8 km/h 19.6 mph /  31.5 km/h 63 % 0.00 in /  0 mm
09:56 41.8 °F /  5.4 °C 30.1 °F /  -1.1 °C 29.62 in /  1002.9 hPa West 5.7 mph /  9.2 km/h 16.1 mph /  25.9 km/h 63 % 0.00 in /  0 mm
10:01 42.0 °F /  5.6 °C 30.7 °F /  -0.7 °C 29.62 in /  1002.9 hPa West 6.2 mph /  10 km/h 9.2 mph /  14.8 km/h 64 % 0.00 in /  0 mm
10:07 42.7 °F /  5.9 °C 31.0 °F /  -0.6 °C 29.62 in /  1002.9 hPa WSW 8.2 mph /  13.2 km/h 17.3 mph /  27.8 km/h 63 % 0.00 in /  0 mm
10:12 43.1 °F /  6.2 °C 30.6 °F /  -0.8 °C 29.61 in /  1002.6 hPa SSW 7.1 mph /  11.4 km/h 16.1 mph /  25.9 km/h 61 % 0.00 in /  0 mm
10:17 43.5 °F /  6.4 °C 30.5 °F /  -0.8 °C 29.61 in /  1002.6 hPa West 8.4 mph /  13.5 km/h 13.8 mph /  22.2 km/h 60 % 0.00 in /  0 mm
10:22 43.8 °F /  6.6 °C 30.8 °F /  -0.7 °C 29.61 in /  1002.6 hPa WSW 7.8 mph /  12.6 km/h 15.0 mph /  24.1 km/h 60 % 0.00 in /  0 mm
10:27 43.9 °F /  6.6 °C 30.5 °F /  -0.8 °C 29.61 in /  1002.6 hPa WSW 9.4 mph /  15.1 km/h 19.6 mph /  31.5 km/h 59 % 0.00 in /  0 mm
10:32 43.9 °F /  6.6 °C 30.5 °F /  -0.8 °C 29.61 in /  1002.6 hPa West 6.3 mph /  10.1 km/h 18.4 mph /  29.6 km/h 59 % 0.00 in /  0 mm
10:37 43.4 °F /  6.3 °C 30.0 °F /  -1.1 °C 29.61 in /  1002.6 hPa WSW 10.3 mph /  16.6 km/h 19.6 mph /  31.5 km/h 59 % 0.00 in /  0 mm
10:42 43.1 °F /  6.2 °C 29.3 °F /  -1.5 °C 29.61 in /  1002.6 hPa SW 6.9 mph /  11.1 km/h 13.8 mph /  22.2 km/h 58 % 0.00 in /  0 mm
10:47 43.0 °F /  6.1 °C 29.2 °F /  -1.6 °C 29.61 in /  1002.6 hPa West 11.1 mph /  17.9 km/h 14.0 mph /  22.5 km/h 58 % 0.00 in /  0 mm
10:52 43.0 °F /  6.1 °C 29.2 °F /  -1.6 °C 29.61 in /  1002.6 hPa SW 10.4 mph /  16.7 km/h 16.1 mph /  25.9 km/h 58 % 0.00 in /  0 mm
10:57 42.9 °F /  6.1 °C 29.1 °F /  -1.6 °C 29.61 in /  1002.6 hPa WSW 10.6 mph /  17.1 km/h 20.7 mph /  33.3 km/h 58 % 0.00 in /  0 mm
11:02 42.7 °F /  5.9 °C 29.8 °F /  -1.2 °C 29.60 in /  1002.3 hPa West 7.1 mph /  11.4 km/h 11.5 mph /  18.5 km/h 60 % 0.00 in /  0 mm
11:07 42.7 °F /  5.9 °C 29.8 °F /  -1.2 °C 29.60 in /  1002.3 hPa WSW 10.2 mph /  16.4 km/h 16.1 mph /  25.9 km/h 60 % 0.00 in /  0 mm
11:12 42.8 °F /  6 °C 29.9 °F /  -1.2 °C 29.60 in /  1002.3 hPa WSW 7.9 mph /  12.7 km/h 10.0 mph /  16.1 km/h 60 % 0.00 in /  0 mm
11:17 43.1 °F /  6.2 °C 29.3 °F /  -1.5 °C 29.59 in /  1001.9 hPa WSW 8.9 mph /  14.3 km/h 18.0 mph /  29 km/h 58 % 0.00 in /  0 mm
11:22 43.3 °F /  6.3 °C 29.1 °F /  -1.6 °C 29.59 in /  1001.9 hPa WSW 7.0 mph /  11.3 km/h 16.1 mph /  25.9 km/h 57 % 0.00 in /  0 mm
11:27 43.5 °F /  6.4 °C 27.9 °F /  -2.3 °C 29.59 in /  1001.9 hPa WNW 5.5 mph /  8.9 km/h 15.0 mph /  24.1 km/h 54 % 0.00 in /  0 mm
11:32 43.6 °F /  6.4 °C 28.0 °F /  -2.2 °C 29.59 in /  1001.9 hPa West 8.1 mph /  13 km/h 11.5 mph /  18.5 km/h 54 % 0.00 in /  0 mm
11:38 43.5 °F /  6.4 °C 28.4 °F /  -2 °C 29.58 in /  1001.6 hPa West 6.8 mph /  10.9 km/h 11.5 mph /  18.5 km/h 55 % 0.00 in /  0 mm
11:43 43.4 °F /  6.3 °C 28.3 °F /  -2.1 °C 29.58 in /  1001.6 hPa West 6.4 mph /  10.3 km/h 10.4 mph /  16.7 km/h 55 % 0.00 in /  0 mm
11:48 43.2 °F /  6.2 °C 28.5 °F /  -1.9 °C 29.58 in /  1001.6 hPa West 5.6 mph /  9 km/h 15.0 mph /  24.1 km/h 56 % 0.00 in /  0 mm
11:53 43.1 °F /  6.2 °C 28.9 °F /  -1.7 °C 29.58 in /  1001.6 hPa West 12.4 mph /  20 km/h 19.6 mph /  31.5 km/h 57 % 0.00 in /  0 mm
11:58 42.9 °F /  6.1 °C 28.7 °F /  -1.8 °C 29.57 in /  1001.2 hPa West 9.3 mph /  15 km/h 18.4 mph /  29.6 km/h 57 % 0.00 in /  0 mm
12:03 42.9 °F /  6.1 °C 29.1 °F /  -1.6 °C 29.57 in /  1001.2 hPa WSW 4.4 mph /  7.1 km/h 9.0 mph /  14.5 km/h 58 % 0.00 in /  0 mm
12:08 43.0 °F /  6.1 °C 29.2 °F /  -1.6 °C 29.57 in /  1001.2 hPa North 4.7 mph /  7.6 km/h 12.0 mph /  19.3 km/h 58 % 0.00 in /  0 mm
12:13 43.0 °F /  6.1 °C 28.4 °F /  -2 °C 29.57 in /  1001.2 hPa SW 4.5 mph /  7.2 km/h 11.5 mph /  18.5 km/h 56 % 0.00 in /  0 mm
12:18 43.0 °F /  6.1 °C 28.4 °F /  -2 °C 29.56 in /  1000.9 hPa SSW 4.2 mph /  6.8 km/h 7.0 mph /  11.3 km/h 56 % 0.00 in /  0 mm
12:23 42.9 °F /  6.1 °C 27.4 °F /  -2.6 °C 29.56 in /  1000.9 hPa NW 7.8 mph /  12.6 km/h 13.8 mph /  22.2 km/h 54 % 0.00 in /  0 mm
12:28 42.9 °F /  6.1 °C 26.9 °F /  -2.8 °C 29.56 in /  1000.9 hPa West 11.4 mph /  18.3 km/h 15.0 mph /  24.1 km/h 53 % 0.00 in /  0 mm
12:33 42.8 °F /  6 °C 27.3 °F /  -2.6 °C 29.56 in /  1000.9 hPa West 4.3 mph /  6.9 km/h 13.8 mph /  22.2 km/h 54 % 0.00 in /  0 mm
12:38 42.7 °F /  5.9 °C 27.2 °F /  -2.7 °C 29.56 in /  1000.9 hPa West 8.3 mph /  13.4 km/h 20.0 mph /  32.2 km/h 54 % 0.00 in /  0 mm
12:43 42.7 °F /  5.9 °C 26.3 °F /  -3.2 °C 29.55 in /  1000.6 hPa West 9.6 mph /  15.4 km/h 13.8 mph /  22.2 km/h 52 % 0.00 in /  0 mm
12:48 42.7 °F /  5.9 °C 26.3 °F /  -3.2 °C 29.55 in /  1000.6 hPa WNW 7.0 mph /  11.3 km/h 18.4 mph /  29.6 km/h 52 % 0.00 in /  0 mm
12:54 42.7 °F /  5.9 °C 25.8 °F /  -3.4 °C 29.55 in /  1000.6 hPa WNW 6.7 mph /  10.8 km/h 11.5 mph /  18.5 km/h 51 % 0.00 in /  0 mm
12:59 42.7 °F /  5.9 °C 26.3 °F /  -3.2 °C 29.55 in /  1000.6 hPa West 5.3 mph /  8.5 km/h 10.0 mph /  16.1 km/h 52 % 0.00 in /  0 mm
13:04 42.7 °F /  5.9 °C 25.8 °F /  -3.4 °C 29.54 in /  1000.2 hPa West 8.0 mph /  12.9 km/h 16.0 mph /  25.7 km/h 51 % 0.00 in /  0 mm
13:09 42.8 °F /  6 °C 26.4 °F /  -3.1 °C 29.54 in /  1000.2 hPa West 7.1 mph /  11.4 km/h 7.1 mph /  11.4 km/h 52 % 0.00 in /  0 mm
13:14 43.4 °F /  6.3 °C 25.9 °F /  -3.4 °C 29.54 in /  1000.2 hPa West 7.0 mph /  11.3 km/h 15.0 mph /  24.1 km/h 50 % 0.00 in /  0 mm
13:19 43.8 °F /  6.6 °C 26.3 °F /  -3.2 °C 29.54 in /  1000.2 hPa West 8.0 mph /  12.9 km/h 14.0 mph /  22.5 km/h 50 % 0.00 in /  0 mm
13:24 44.1 °F /  6.7 °C 25.1 °F /  -3.8 °C 29.53 in /  999.9 hPa WSW 10.6 mph /  17.1 km/h 21.0 mph /  33.8 km/h 47 % 0.00 in /  0 mm
13:29 43.9 °F /  6.6 °C 25.5 °F /  -3.6 °C 29.54 in /  1000.2 hPa WNW 9.0 mph /  14.5 km/h 16.0 mph /  25.7 km/h 48 % 0.00 in /  0 mm
13:34 43.7 °F /  6.5 °C 25.3 °F /  -3.7 °C 29.54 in /  1000.2 hPa WNW 7.0 mph /  11.3 km/h 14.0 mph /  22.5 km/h 48 % 0.00 in /  0 mm
13:39 43.6 °F /  6.4 °C 26.2 °F /  -3.2 °C 29.53 in /  999.9 hPa WNW 8.4 mph /  13.5 km/h 12.7 mph /  20.4 km/h 50 % 0.00 in /  0 mm
13:44 43.4 °F /  6.3 °C 26.9 °F /  -2.8 °C 29.53 in /  999.9 hPa West 5.0 mph /  8 km/h 17.0 mph /  27.4 km/h 52 % 0.00 in /  0 mm
13:49 43.4 °F /  6.3 °C 26.9 °F /  -2.8 °C 29.53 in /  999.9 hPa West 3.0 mph /  4.8 km/h 13.0 mph /  20.9 km/h 52 % 0.00 in /  0 mm
13:54 43.3 °F /  6.3 °C 27.3 °F /  -2.6 °C 29.53 in /  999.9 hPa SW 3.1 mph /  5 km/h 9.2 mph /  14.8 km/h 53 % 0.00 in /  0 mm
13:59 43.2 °F /  6.2 °C 27.2 °F /  -2.7 °C 29.53 in /  999.9 hPa WSW 4.1 mph /  6.6 km/h 8.1 mph /  13 km/h 53 % 0.00 in /  0 mm
14:04 43.1 °F /  6.2 °C 26.7 °F /  -2.9 °C 29.53 in /  999.9 hPa WNW 4.3 mph /  6.9 km/h 11.5 mph /  18.5 km/h 52 % 0.00 in /  0 mm
14:09 43.1 °F /  6.2 °C 26.7 °F /  -2.9 °C 29.52 in /  999.5 hPa WSW 7.9 mph /  12.7 km/h 15.0 mph /  24.1 km/h 52 % 0.00 in /  0 mm
14:14 43.1 °F /  6.2 °C 26.7 °F /  -2.9 °C 29.52 in /  999.5 hPa WNW 7.6 mph /  12.2 km/h 12.7 mph /  20.4 km/h 52 % 0.00 in /  0 mm
14:19 43.0 °F /  6.1 °C 26.6 °F /  -3 °C 29.52 in /  999.5 hPa WSW 5.4 mph /  8.7 km/h 16.0 mph /  25.7 km/h 52 % 0.00 in /  0 mm
14:24 43.0 °F /  6.1 °C 27.0 °F /  -2.8 °C 29.52 in /  999.5 hPa WNW 5.2 mph /  8.4 km/h 9.2 mph /  14.8 km/h 53 % 0.00 in /  0 mm
14:29 42.9 °F /  6.1 °C 26.5 °F /  -3.1 °C 29.52 in /  999.5 hPa West 7.1 mph /  11.4 km/h 17.3 mph /  27.8 km/h 52 % 0.00 in /  0 mm
14:35 42.8 °F /  6 °C 26.8 °F /  -2.9 °C 29.52 in /  999.5 hPa WSW 4.6 mph /  7.4 km/h 12.7 mph /  20.4 km/h 53 % 0.00 in /  0 mm
14:40 42.8 °F /  6 °C 26.4 °F /  -3.1 °C 29.52 in /  999.5 hPa SW 4.7 mph /  7.6 km/h 9.2 mph /  14.8 km/h 52 % 0.00 in /  0 mm
14:45 42.7 °F /  5.9 °C 26.7 °F /  -2.9 °C 29.52 in /  999.5 hPa WSW 6.4 mph /  10.3 km/h 12.7 mph /  20.4 km/h 53 % 0.00 in /  0 mm
14:50 42.6 °F /  5.9 °C 26.6 °F /  -3 °C 29.52 in /  999.5 hPa NW 6.3 mph /  10.1 km/h 9.2 mph /  14.8 km/h 53 % 0.00 in /  0 mm
14:55 42.6 °F /  5.9 °C 26.6 °F /  -3 °C 29.52 in /  999.5 hPa West 4.5 mph /  7.2 km/h 10.4 mph /  16.7 km/h 53 % 0.00 in /  0 mm
15:00 42.5 °F /  5.8 °C 26.1 °F /  -3.3 °C 29.52 in /  999.5 hPa WNW 4.3 mph /  6.9 km/h 10.0 mph /  16.1 km/h 52 % 0.00 in /  0 mm
15:05 42.4 °F /  5.8 °C 26.0 °F /  -3.3 °C 29.52 in /  999.5 hPa WNW 7.9 mph /  12.7 km/h 15.0 mph /  24.1 km/h 52 % 0.00 in /  0 mm
15:10 42.3 °F /  5.7 °C 26.8 °F /  -2.9 °C 29.52 in /  999.5 hPa West 4.4 mph /  7.1 km/h 11.5 mph /  18.5 km/h 54 % 0.00 in /  0 mm
15:15 42.3 °F /  5.7 °C 27.3 °F /  -2.6 °C 29.53 in /  999.9 hPa SW 7.1 mph /  11.4 km/h 13.8 mph /  22.2 km/h 55 % 0.00 in /  0 mm
15:20 42.2 °F /  5.7 °C 27.6 °F /  -2.4 °C 29.53 in /  999.9 hPa WSW 2.9 mph /  4.7 km/h 6.0 mph /  9.7 km/h 56 % 0.00 in /  0 mm
15:25 42.1 °F /  5.6 °C 27.9 °F /  -2.3 °C 29.53 in /  999.9 hPa NW 6.3 mph /  10.1 km/h 11.5 mph /  18.5 km/h 57 % 0.00 in /  0 mm
15:30 41.9 °F /  5.5 °C 27.8 °F /  -2.3 °C 29.53 in /  999.9 hPa SW 7.4 mph /  11.9 km/h 11.5 mph /  18.5 km/h 57 % 0.00 in /  0 mm
15:35 41.9 °F /  5.5 °C 28.2 °F /  -2.1 °C 29.53 in /  999.9 hPa SW 7.0 mph /  11.3 km/h 10.4 mph /  16.7 km/h 58 % 0.00 in /  0 mm
15:40 41.7 °F /  5.4 °C 28.0 °F /  -2.2 °C 29.53 in /  999.9 hPa West 5.8 mph /  9.3 km/h 11.5 mph /  18.5 km/h 58 % 0.00 in /  0 mm
15:45 41.6 °F /  5.3 °C 28.3 °F /  -2.1 °C 29.53 in /  999.9 hPa West 7.0 mph /  11.3 km/h 13.8 mph /  22.2 km/h 59 % 0.00 in /  0 mm
15:51 41.5 °F /  5.3 °C 27.8 °F /  -2.3 °C 29.54 in /  1000.2 hPa WSW 4.7 mph /  7.6 km/h 20.7 mph /  33.3 km/h 58 % 0.00 in /  0 mm
15:56 41.5 °F /  5.3 °C 28.2 °F /  -2.1 °C 29.54 in /  1000.2 hPa WSW 6.6 mph /  10.6 km/h 6.9 mph /  11.1 km/h 59 % 0.00 in /  0 mm
16:01 41.5 °F /  5.3 °C 28.6 °F /  -1.9 °C 29.54 in /  1000.2 hPa West 5.8 mph /  9.3 km/h 12.7 mph /  20.4 km/h 60 % 0.00 in /  0 mm
16:06 41.5 °F /  5.3 °C 28.6 °F /  -1.9 °C 29.54 in /  1000.2 hPa West 10.0 mph /  16.1 km/h 15.0 mph /  24.1 km/h 60 % 0.00 in /  0 mm
16:11 41.5 °F /  5.3 °C 28.6 °F /  -1.9 °C 29.54 in /  1000.2 hPa WNW 6.8 mph /  10.9 km/h 16.1 mph /  25.9 km/h 60 % 0.00 in /  0 mm
16:16 41.5 °F /  5.3 °C 28.2 °F /  -2.1 °C 29.54 in /  1000.2 hPa WSW 7.7 mph /  12.4 km/h 16.1 mph /  25.9 km/h 59 % 0.00 in /  0 mm
16:21 41.5 °F /  5.3 °C 27.8 °F /  -2.3 °C 29.54 in /  1000.2 hPa West 6.9 mph /  11.1 km/h 11.5 mph /  18.5 km/h 58 % 0.00 in /  0 mm
16:26 41.5 °F /  5.3 °C 27.8 °F /  -2.3 °C 29.54 in /  1000.2 hPa WNW 4.1 mph /  6.6 km/h 6.9 mph /  11.1 km/h 58 % 0.00 in /  0 mm
16:31 41.5 °F /  5.3 °C 27.8 °F /  -2.3 °C 29.54 in /  1000.2 hPa WNW 4.1 mph /  6.6 km/h 8.1 mph /  13 km/h 58 % 0.00 in /  0 mm
16:36 41.5 °F /  5.3 °C 27.8 °F /  -2.3 °C 29.54 in /  1000.2 hPa WSW 7.0 mph /  11.3 km/h 9.2 mph /  14.8 km/h 58 % 0.00 in /  0 mm
16:41 41.4 °F /  5.2 °C 27.3 °F /  -2.6 °C 29.54 in /  1000.2 hPa WSW 6.0 mph /  9.7 km/h 11.5 mph /  18.5 km/h 57 % 0.00 in /  0 mm
16:46 41.4 °F /  5.2 °C 27.3 °F /  -2.6 °C 29.54 in /  1000.2 hPa SSW 6.0 mph /  9.7 km/h 10.4 mph /  16.7 km/h 57 % 0.00 in /  0 mm
16:51 41.3 °F /  5.2 °C 27.2 °F /  -2.7 °C 29.54 in /  1000.2 hPa WNW 8.3 mph /  13.4 km/h 11.0 mph /  17.7 km/h 57 % 0.00 in /  0 mm
16:56 41.3 °F /  5.2 °C 27.2 °F /  -2.7 °C 29.54 in /  1000.2 hPa SW 6.4 mph /  10.3 km/h 10.0 mph /  16.1 km/h 57 % 0.00 in /  0 mm
17:01 41.3 °F /  5.2 °C 27.6 °F /  -2.4 °C 29.54 in /  1000.2 hPa WNW 1.5 mph /  2.4 km/h 12.7 mph /  20.4 km/h 58 % 0.00 in /  0 mm
17:06 41.3 °F /  5.2 °C 27.6 °F /  -2.4 °C 29.55 in /  1000.6 hPa WSW 6.2 mph /  10 km/h 11.5 mph /  18.5 km/h 58 % 0.00 in /  0 mm
17:11 41.2 °F /  5.1 °C 27.5 °F /  -2.5 °C 29.55 in /  1000.6 hPa West 7.2 mph /  11.6 km/h 11.5 mph /  18.5 km/h 58 % 0.00 in /  0 mm
17:16 41.2 °F /  5.1 °C 28.4 °F /  -2 °C 29.55 in /  1000.6 hPa SW 8.8 mph /  14.2 km/h 14.0 mph /  22.5 km/h 60 % 0.00 in /  0 mm
17:21 41.1 °F /  5.1 °C 28.7 °F /  -1.8 °C 29.55 in /  1000.6 hPa WSW 6.2 mph /  10 km/h 11.5 mph /  18.5 km/h 61 % 0.00 in /  0 mm
17:26 41.0 °F /  5 °C 29.0 °F /  -1.7 °C 29.55 in /  1000.6 hPa SW 7.9 mph /  12.7 km/h 11.5 mph /  18.5 km/h 62 % 0.00 in /  0 mm
17:31 40.9 °F /  4.9 °C 28.9 °F /  -1.7 °C 29.55 in /  1000.6 hPa West 10.1 mph /  16.3 km/h 12.7 mph /  20.4 km/h 62 % 0.00 in /  0 mm
17:37 40.8 °F /  4.9 °C 28.8 °F /  -1.8 °C 29.55 in /  1000.6 hPa WSW 8.0 mph /  12.9 km/h 11.5 mph /  18.5 km/h 62 % 0.00 in /  0 mm
17:46 40.8 °F /  4.9 °C 28.8 °F /  -1.8 °C 29.55 in /  1000.6 hPa West 7.1 mph /  11.4 km/h 11.0 mph /  17.7 km/h 62 % 0.00 in /  0 mm
17:51 40.7 °F /  4.8 °C 29.1 °F /  -1.6 °C 29.55 in /  1000.6 hPa WNW 2.3 mph /  3.7 km/h 5.0 mph /  8 km/h 63 % 0.00 in /  0 mm
17:55 40.7 °F /  4.8 °C 29.5 °F /  -1.4 °C 29.55 in /  1000.6 hPa West 4.7 mph /  7.6 km/h 9.2 mph /  14.8 km/h 64 % 0.00 in /  0 mm
17:57 40.7 °F /  4.8 °C 29.5 °F /  -1.4 °C 29.55 in /  1000.6 hPa WSW 6.3 mph /  10.1 km/h 13.8 mph /  22.2 km/h 64 % 0.00 in /  0 mm
18:01 40.7 °F /  4.8 °C 29.5 °F /  -1.4 °C 29.55 in /  1000.6 hPa NW 5.7 mph /  9.2 km/h 11.5 mph /  18.5 km/h 64 % 0.00 in /  0 mm
18:06 40.6 °F /  4.8 °C 29.4 °F /  -1.4 °C 29.55 in /  1000.6 hPa West 9.8 mph /  15.8 km/h 16.1 mph /  25.9 km/h 64 % 0.00 in /  0 mm
18:11 40.6 °F /  4.8 °C 29.4 °F /  -1.4 °C 29.55 in /  1000.6 hPa WNW 4.9 mph /  7.9 km/h 9.2 mph /  14.8 km/h 64 % 0.00 in /  0 mm
18:16 40.5 °F /  4.7 °C 29.3 °F /  -1.5 °C 29.55 in /  1000.6 hPa WSW 7.7 mph /  12.4 km/h 12.7 mph /  20.4 km/h 64 % 0.00 in /  0 mm
18:21 40.4 °F /  4.7 °C 29.2 °F /  -1.6 °C 29.55 in /  1000.6 hPa WSW 4.9 mph /  7.9 km/h 10.4 mph /  16.7 km/h 64 % 0.00 in /  0 mm
18:26 40.4 °F /  4.7 °C 29.2 °F /  -1.6 °C 29.55 in /  1000.6 hPa SSW 6.8 mph /  10.9 km/h 10.4 mph /  16.7 km/h 64 % 0.00 in /  0 mm
18:31 40.3 °F /  4.6 °C 29.1 °F /  -1.6 °C 29.55 in /  1000.6 hPa WSW 6.3 mph /  10.1 km/h 12.7 mph /  20.4 km/h 64 % 0.00 in /  0 mm
18:36 40.2 °F /  4.6 °C 29.0 °F /  -1.7 °C 29.55 in /  1000.6 hPa SSW 5.0 mph /  8 km/h 10.0 mph /  16.1 km/h 64 % 0.00 in /  0 mm
18:41 40.1 °F /  4.5 °C 28.9 °F /  -1.7 °C 29.55 in /  1000.6 hPa West 4.9 mph /  7.9 km/h 9.2 mph /  14.8 km/h 64 % 0.00 in /  0 mm
18:51 40.0 °F /  4.4 °C 29.2 °F /  -1.6 °C 29.55 in /  1000.6 hPa West 3.8 mph /  6.1 km/h 10.4 mph /  16.7 km/h 65 % 0.00 in /  0 mm
18:56 40.0 °F /  4.4 °C 29.2 °F /  -1.6 °C 29.55 in /  1000.6 hPa West 5.3 mph /  8.5 km/h 12.7 mph /  20.4 km/h 65 % 0.00 in /  0 mm
19:01 40.0 °F /  4.4 °C 29.6 °F /  -1.3 °C 29.55 in /  1000.6 hPa SW 6.4 mph /  10.3 km/h 10.4 mph /  16.7 km/h 66 % 0.00 in /  0 mm
19:03 40.0 °F /  4.4 °C 29.2 °F /  -1.6 °C 29.55 in /  1000.6 hPa WNW 4.5 mph /  7.2 km/h 8.1 mph /  13 km/h 65 % 0.00 in /  0 mm
19:08 40.0 °F /  4.4 °C 29.2 °F /  -1.6 °C 29.56 in /  1000.9 hPa SW 2.9 mph /  4.7 km/h 7.0 mph /  11.3 km/h 65 % 0.00 in /  0 mm
19:13 40.0 °F /  4.4 °C 29.2 °F /  -1.6 °C 29.56 in /  1000.9 hPa West 3.7 mph /  6 km/h 6.9 mph /  11.1 km/h 65 % 0.00 in /  0 mm
19:18 40.0 °F /  4.4 °C 29.2 °F /  -1.6 °C 29.56 in /  1000.9 hPa WSW 4.3 mph /  6.9 km/h 7.0 mph /  11.3 km/h 65 % 0.00 in /  0 mm
19:24 39.9 °F /  4.4 °C 28.7 °F /  -1.8 °C 29.56 in /  1000.9 hPa West 5.2 mph /  8.4 km/h 9.2 mph /  14.8 km/h 64 % 0.00 in /  0 mm
19:29 39.9 °F /  4.4 °C 28.3 °F /  -2.1 °C 29.57 in /  1001.2 hPa WSW 6.4 mph /  10.3 km/h 11.5 mph /  18.5 km/h 63 % 0.00 in /  0 mm
19:34 39.9 °F /  4.4 °C 28.3 °F /  -2.1 °C 29.57 in /  1001.2 hPa West 6.0 mph /  9.7 km/h 13.0 mph /  20.9 km/h 63 % 0.00 in /  0 mm
19:39 40.0 °F /  4.4 °C 28.0 °F /  -2.2 °C 29.57 in /  1001.2 hPa WNW 7.0 mph /  11.3 km/h 18.0 mph /  29 km/h 62 % 0.00 in /  0 mm
19:44 40.0 °F /  4.4 °C 28.4 °F /  -2 °C 29.57 in /  1001.2 hPa WNW 7.0 mph /  11.3 km/h 18.0 mph /  29 km/h 63 % 0.00 in /  0 mm
19:49 40.0 °F /  4.4 °C 28.4 °F /  -2 °C 29.57 in /  1001.2 hPa West 5.0 mph /  8 km/h 10.0 mph /  16.1 km/h 63 % 0.00 in /  0 mm
19:54 40.0 °F /  4.4 °C 28.8 °F /  -1.8 °C 29.57 in /  1001.2 hPa West 10.0 mph /  16.1 km/h 14.0 mph /  22.5 km/h 64 % 0.00 in /  0 mm
19:59 39.8 °F /  4.3 °C 28.2 °F /  -2.1 °C 29.57 in /  1001.2 hPa WSW 6.8 mph /  10.9 km/h 17.0 mph /  27.4 km/h 63 % 0.00 in /  0 mm
20:04 39.8 °F /  4.3 °C 28.2 °F /  -2.1 °C 29.57 in /  1001.2 hPa West 7.0 mph /  11.3 km/h 17.0 mph /  27.4 km/h 63 % 0.00 in /  0 mm
20:09 39.8 °F /  4.3 °C 28.2 °F /  -2.1 °C 29.57 in /  1001.2 hPa West 9.0 mph /  14.5 km/h 14.0 mph /  22.5 km/h 63 % 0.00 in /  0 mm
20:14 39.8 °F /  4.3 °C 27.8 °F /  -2.3 °C 29.57 in /  1001.2 hPa West 7.0 mph /  11.3 km/h 17.0 mph /  27.4 km/h 62 % 0.00 in /  0 mm
20:19 39.8 °F /  4.3 °C 27.8 °F /  -2.3 °C 29.57 in /  1001.2 hPa West 7.0 mph /  11.3 km/h 15.0 mph /  24.1 km/h 62 % 0.00 in /  0 mm
20:24 39.8 °F /  4.3 °C 27.8 °F /  -2.3 °C 29.57 in /  1001.2 hPa West 9.0 mph /  14.5 km/h 20.0 mph /  32.2 km/h 62 % 0.00 in /  0 mm
20:29 39.7 °F /  4.3 °C 27.7 °F /  -2.4 °C 29.57 in /  1001.2 hPa WSW 8.0 mph /  12.9 km/h 17.0 mph /  27.4 km/h 62 % 0.00 in /  0 mm
20:34 39.7 °F /  4.3 °C 27.7 °F /  -2.4 °C 29.57 in /  1001.2 hPa WSW 8.8 mph /  14.2 km/h 12.7 mph /  20.4 km/h 62 % 0.00 in /  0 mm
20:39 39.6 °F /  4.2 °C 27.6 °F /  -2.4 °C 29.57 in /  1001.2 hPa West 8.0 mph /  12.9 km/h 14.0 mph /  22.5 km/h 62 % 0.00 in /  0 mm
20:44 39.5 °F /  4.2 °C 27.9 °F /  -2.3 °C 29.57 in /  1001.2 hPa West 7.0 mph /  11.3 km/h 13.0 mph /  20.9 km/h 63 % 0.00 in /  0 mm
20:49 39.4 °F /  4.1 °C 27.8 °F /  -2.3 °C 29.57 in /  1001.2 hPa West 8.0 mph /  12.9 km/h 13.0 mph /  20.9 km/h 63 % 0.00 in /  0 mm
20:54 39.3 °F /  4.1 °C 27.7 °F /  -2.4 °C 29.57 in /  1001.2 hPa West 7.0 mph /  11.3 km/h 15.0 mph /  24.1 km/h 63 % 0.00 in /  0 mm
20:59 39.2 °F /  4 °C 27.7 °F /  -2.4 °C 29.57 in /  1001.2 hPa SSW 3.6 mph /  5.8 km/h 11.5 mph /  18.5 km/h 63 % 0.00 in /  0 mm
21:04 39.1 °F /  3.9 °C 27.6 °F /  -2.4 °C 29.57 in /  1001.2 hPa West 6.6 mph /  10.6 km/h 13.8 mph /  22.2 km/h 63 % 0.00 in /  0 mm
21:09 39.1 °F /  3.9 °C 27.6 °F /  -2.4 °C 29.57 in /  1001.2 hPa WSW 7.9 mph /  12.7 km/h 13.8 mph /  22.2 km/h 63 % 0.00 in /  0 mm
21:14 39.1 °F /  3.9 °C 27.6 °F /  -2.4 °C 29.58 in /  1001.6 hPa SW 9.0 mph /  14.5 km/h 12.7 mph /  20.4 km/h 63 % 0.00 in /  0 mm
21:19 39.2 °F /  4 °C 28.0 °F /  -2.2 °C 29.57 in /  1001.2 hPa SW 7.8 mph /  12.6 km/h 11.5 mph /  18.5 km/h 64 % 0.00 in /  0 mm
21:24 39.2 °F /  4 °C 27.7 °F /  -2.4 °C 29.58 in /  1001.6 hPa WNW 7.1 mph /  11.4 km/h 12.7 mph /  20.4 km/h 63 % 0.00 in /  0 mm
21:29 39.2 °F /  4 °C 28.0 °F /  -2.2 °C 29.57 in /  1001.2 hPa WSW 8.9 mph /  14.3 km/h 12.7 mph /  20.4 km/h 64 % 0.00 in /  0 mm
21:34 39.3 °F /  4.1 °C 28.5 °F /  -1.9 °C 29.57 in /  1001.2 hPa WSW 8.9 mph /  14.3 km/h 12.7 mph /  20.4 km/h 65 % 0.00 in /  0 mm
21:39 39.2 °F /  4 °C 28.4 °F /  -2 °C 29.57 in /  1001.2 hPa West 4.9 mph /  7.9 km/h 8.1 mph /  13 km/h 65 % 0.00 in /  0 mm
21:44 39.2 °F /  4 °C 28.4 °F /  -2 °C 29.57 in /  1001.2 hPa WSW 2.9 mph /  4.7 km/h 6.0 mph /  9.7 km/h 65 % 0.00 in /  0 mm
21:49 39.0 °F /  3.9 °C 28.6 °F /  -1.9 °C 29.57 in /  1001.2 hPa West 4.8 mph /  7.7 km/h 11.5 mph /  18.5 km/h 66 % 0.00 in /  0 mm
21:54 38.8 °F /  3.8 °C 28.4 °F /  -2 °C 29.57 in /  1001.2 hPa WNW 8.4 mph /  13.5 km/h 15.0 mph /  24.1 km/h 66 % 0.00 in /  0 mm
21:59 38.7 °F /  3.7 °C 28.7 °F /  -1.8 °C 29.58 in /  1001.6 hPa WSW 9.5 mph /  15.3 km/h 13.8 mph /  22.2 km/h 67 % 0.00 in /  0 mm
22:04 38.6 °F /  3.7 °C 28.6 °F /  -1.9 °C 29.57 in /  1001.2 hPa SW 5.6 mph /  9 km/h 9.2 mph /  14.8 km/h 67 % 0.00 in /  0 mm
22:09 38.5 °F /  3.6 °C 28.1 °F /  -2.2 °C 29.57 in /  1001.2 hPa SW 5.9 mph /  9.5 km/h 10.4 mph /  16.7 km/h 66 % 0.00 in /  0 mm
22:16 38.3 °F /  3.5 °C 28.3 °F /  -2.1 °C 29.58 in /  1001.6 hPa West 5.6 mph /  9 km/h 11.5 mph /  18.5 km/h 67 % 0.00 in /  0 mm
22:22 38.2 °F /  3.4 °C 28.2 °F /  -2.1 °C 29.57 in /  1001.2 hPa WSW 6.5 mph /  10.5 km/h 11.5 mph /  18.5 km/h 67 % 0.00 in /  0 mm
22:24 38.2 °F /  3.4 °C 28.6 °F /  -1.9 °C 29.58 in /  1001.6 hPa WNW 5.3 mph /  8.5 km/h 12.7 mph /  20.4 km/h 68 % 0.00 in /  0 mm
22:27 38.2 °F /  3.4 °C 28.6 °F /  -1.9 °C 29.58 in /  1001.6 hPa West 7.7 mph /  12.4 km/h 11.5 mph /  18.5 km/h 68 % 0.00 in /  0 mm
22:32 38.1 °F /  3.4 °C 28.1 °F /  -2.2 °C 29.58 in /  1001.6 hPa WSW 4.3 mph /  6.9 km/h 15.0 mph /  24.1 km/h 67 % 0.00 in /  0 mm
22:37 38.1 °F /  3.4 °C 28.1 °F /  -2.2 °C 29.58 in /  1001.6 hPa WSW 8.3 mph /  13.4 km/h 17.3 mph /  27.8 km/h 67 % 0.00 in /  0 mm
22:43 38.0 °F /  3.3 °C 28.0 °F /  -2.2 °C 29.58 in /  1001.6 hPa West 8.9 mph /  14.3 km/h 12.0 mph /  19.3 km/h 67 % 0.00 in /  0 mm
22:48 38.0 °F /  3.3 °C 28.0 °F /  -2.2 °C 29.58 in /  1001.6 hPa WSW 8.1 mph /  13 km/h 11.5 mph /  18.5 km/h 67 % 0.00 in /  0 mm
22:53 38.0 °F /  3.3 °C 28.0 °F /  -2.2 °C 29.58 in /  1001.6 hPa WSW 5.9 mph /  9.5 km/h 10.4 mph /  16.7 km/h 67 % 0.00 in /  0 mm
22:58 38.0 °F /  3.3 °C 28.0 °F /  -2.2 °C 29.58 in /  1001.6 hPa WSW 7.8 mph /  12.6 km/h 15.0 mph /  24.1 km/h 67 % 0.00 in /  0 mm
23:03 38.1 °F /  3.4 °C 28.1 °F /  -2.2 °C 29.58 in /  1001.6 hPa West 4.7 mph /  7.6 km/h 13.8 mph /  22.2 km/h 67 % 0.00 in /  0 mm
23:08 38.1 °F /  3.4 °C 28.1 °F /  -2.2 °C 29.59 in /  1001.9 hPa SW 6.7 mph /  10.8 km/h 10.4 mph /  16.7 km/h 67 % 0.00 in /  0 mm
23:13 38.2 °F /  3.4 °C 27.8 °F /  -2.3 °C 29.59 in /  1001.9 hPa WSW 7.1 mph /  11.4 km/h 11.5 mph /  18.5 km/h 66 % 0.00 in /  0 mm
23:18 38.2 °F /  3.4 °C 27.8 °F /  -2.3 °C 29.59 in /  1001.9 hPa SW 7.2 mph /  11.6 km/h 20.0 mph /  32.2 km/h 66 % 0.00 in /  0 mm
23:23 38.3 °F /  3.5 °C 27.9 °F /  -2.3 °C 29.59 in /  1001.9 hPa WSW 5.7 mph /  9.2 km/h 11.5 mph /  18.5 km/h 66 % 0.00 in /  0 mm
23:28 38.3 °F /  3.5 °C 27.6 °F /  -2.4 °C 29.58 in /  1001.6 hPa WSW 10.6 mph /  17.1 km/h 16.1 mph /  25.9 km/h 65 % 0.00 in /  0 mm
23:33 38.3 °F /  3.5 °C 27.6 °F /  -2.4 °C 29.58 in /  1001.6 hPa WSW 10.3 mph /  16.6 km/h 12.7 mph /  20.4 km/h 65 % 0.00 in /  0 mm
23:38 38.3 °F /  3.5 °C 27.6 °F /  -2.4 °C 29.58 in /  1001.6 hPa West 8.0 mph /  12.9 km/h 12.7 mph /  20.4 km/h 65 % 0.00 in /  0 mm
23:43 38.2 °F /  3.4 °C 27.1 °F /  -2.7 °C 29.58 in /  1001.6 hPa WSW 11.5 mph /  18.5 km/h 18.4 mph /  29.6 km/h 64 % 0.00 in /  0 mm
23:48 38.2 °F /  3.4 °C 26.7 °F /  -2.9 °C 29.58 in /  1001.6 hPa WSW 8.8 mph /  14.2 km/h 20.0 mph /  32.2 km/h 63 % 0.00 in /  0 mm
23:53 38.2 °F /  3.4 °C 26.7 °F /  -2.9 °C 29.58 in /  1001.6 hPa WSW 7.7 mph /  12.4 km/h 10.4 mph /  16.7 km/h 63 % 0.00 in /  0 mm
23:58 38.2 °F /  3.4 °C 27.1 °F /  -2.7 °C 29.58 in /  1001.6 hPa SW 8.7 mph /  14 km/h 16.0 mph /  25.7 km/h 64 % 0.00 in /  0 mm
Crab Meadow Weather
Compliments of Weather Underground - 3 mb

Script developed by  Jim McMurry - jmcmurry@mwt.net Adapted for the template by  Wim van der Kuil - Leuven-Template.eu

Extremes: By average annual rainfall, the wettest place in the world is Mawslynram, in Meghalaya State, India with 467 1/2 inches per annum.